This is the latest recevied weather packets stored in our database for station/object OK1PMP-6. If no packets are shown the sender has not sent any weather packets the latest 10 day(s).
| Time | Temp. | Humidity | Pressure | Rain* | Wind** | Luminosity | Snow |
|---|---|---|---|---|---|---|---|
| 1778114175 | 11.67° C | 96% | 1010.5 hPa | 0 mm | - | 0 W/m² | - |
| 1778113275 | 11.67° C | 97% | 1010.9 hPa | 0 mm | - | 0 W/m² | - |
| 1778112363 | 11.67° C | 97% | 1010.6 hPa | 0 mm | - | 0 W/m² | - |
| 1778111460 | 11.67° C | 97% | 1010.1 hPa | 0 mm | - | 0 W/m² | - |
| 1778110559 | 11.67° C | 97% | 1009.4 hPa | 0.51 mm | - | 0 W/m² | - |
| 1778109654 | 11.67° C | 97% | 1009.2 hPa | 1.02 mm | - | 0 W/m² | - |
| 1778108755 | 11.67° C | 97% | 1009.2 hPa | 1.52 mm | - | 0 W/m² | - |
| 1778107858 | 11.67° C | 97% | 1008.8 hPa | 2.03 mm | - | 0 W/m² | - |
| 1778106955 | 12.22° C | 96% | 1009.3 hPa | 2.03 mm | - | 0 W/m² | - |
| 1778106055 | 12.22° C | 97% | 1010.5 hPa | 2.79 mm | - | 0 W/m² | - |
| 1778105143 | 12.22° C | 97% | 1011 hPa | 2.29 mm | - | 0 W/m² | - |
| 1778104243 | 12.78° C | 96% | 1010.4 hPa | 2.03 mm | - | 0 W/m² | - |
| 1778103340 | 12.78° C | 96% | 1010.5 hPa | 2.79 mm | - | 0 W/m² | - |
| 1778102449 | 12.22° C | 96% | 1010 hPa | 2.79 mm | - | 0 W/m² | - |
| 1778101544 | 12.22° C | 96% | 1009.2 hPa | 3.81 mm | - | 0 W/m² | - |
| 1778100647 | 12.22° C | 95% | 1008.4 hPa | 4.32 mm | - | 0 W/m² | - |
| 1778099749 | 12.22° C | 96% | 1008.9 hPa | 2.79 mm | - | 0 W/m² | - |
| 1778098845 | 12.78° C | 95% | 1009 hPa | 2.03 mm | - | 0 W/m² | - |
| 1778097933 | 12.78° C | 94% | 1009.4 hPa | 0.76 mm | - | 0 W/m² | - |
| 1778097037 | 12.78° C | 93% | 1008.6 hPa | 0 mm | - | 0 W/m² | - |
| 1778096138 | 12.78° C | 93% | 1008.2 hPa | 0 mm | - | 0 W/m² | - |
| 1778095239 | 12.78° C | 92% | 1008.1 hPa | 0 mm | - | 0 W/m² | - |
| 1778094353 | 12.78° C | 93% | 1007.6 hPa | 0 mm | - | 0 W/m² | - |
| 1778093416 | 12.78° C | 91% | 1008 hPa | 0 mm | - | 0 W/m² | - |
| 1778092525 | 12.78° C | 91% | 1007.1 hPa | 0 mm | - | 0 W/m² | - |
* Rain latest hour (hover to see other rain measurements)
** Current wind speed in m/s (hover to see current wind gust speed)